TimeEDT,TemperatureF,Dew PointF,Humidity,Sea Level PressureIn,VisibilityMPH,Wind Direction,Wind SpeedMPH,Gust SpeedMPH,PrecipitationIn,Events,Conditions,WindDirDegrees,DateUTC
12:53 AM,57.9,57.0,97,29.95,9.0,Calm,Calm,-,N/A,,Scattered Clouds,0,2013-04-15 04:53:00
1:53 AM,57.9,57.9,100,29.93,10.0,Calm,Calm,-,N/A,,Clear,0,2013-04-15 05:53:00
2:53 AM,60.1,57.9,93,29.93,10.0,NE,3.5,-,N/A,,Overcast,40,2013-04-15 06:53:00
3:53 AM,57.9,57.0,97,29.94,10.0,Calm,Calm,-,N/A,,Partly Cloudy,0,2013-04-15 07:53:00
4:53 AM,59.0,57.0,93,29.95,10.0,East,3.5,-,N/A,,Overcast,90,2013-04-15 08:53:00
5:28 AM,59.0,57.2,94,29.95,10.0,Calm,Calm,-,N/A,,Overcast,0,2013-04-15 09:28:00
5:53 AM,59.0,57.9,96,29.97,10.0,Calm,Calm,-,N/A,,Overcast,0,2013-04-15 09:53:00
6:53 AM,59.0,57.9,96,29.99,10.0,Calm,Calm,-,N/A,,Overcast,0,2013-04-15 10:53:00
7:53 AM,60.1,57.9,93,30.02,10.0,Calm,Calm,-,N/A,,Overcast,0,2013-04-15 11:53:00
8:53 AM,61.0,59.0,93,30.05,10.0,Calm,Calm,-,N/A,,Overcast,0,2013-04-15 12:53:00
9:53 AM,64.0,60.1,87,30.05,10.0,East,3.5,-,N/A,,Overcast,90,2013-04-15 13:53:00
10:53 AM,68.0,61.0,78,30.06,10.0,Calm,Calm,-,N/A,,Overcast,0,2013-04-15 14:53:00
11:53 AM,72.0,59.0,64,30.06,10.0,ENE,5.8,-,N/A,,Scattered Clouds,70,2013-04-15 15:53:00
12:53 PM,73.9,60.1,62,30.05,10.0,Variable,4.6,-,N/A,,Partly Cloudy,0,2013-04-15 16:53:00
1:53 PM,77.0,62.1,60,30.05,10.0,Calm,Calm,-,N/A,,Scattered Clouds,0,2013-04-15 17:53:00
2:53 PM,79.0,62.1,56,30.04,10.0,Calm,Calm,-,N/A,,Scattered Clouds,0,2013-04-15 18:53:00
3:53 PM,79.0,62.1,56,30.04,10.0,ENE,5.8,-,N/A,,Mostly Cloudy,60,2013-04-15 19:53:00
4:53 PM,81.0,62.1,52,30.03,10.0,NNE,8.1,-,N/A,,Scattered Clouds,20,2013-04-15 20:53:00
5:53 PM,81.0,63.0,54,30.04,10.0,Variable,4.6,-,N/A,,Scattered Clouds,0,2013-04-15 21:53:00
6:53 PM,79.0,62.1,56,30.04,10.0,East,4.6,-,N/A,,Scattered Clouds,80,2013-04-15 22:53:00
7:53 PM,75.0,63.0,66,30.04,10.0,NE,3.5,-,N/A,,Clear,50,2013-04-15 23:53:00
8:53 PM,71.1,63.0,75,30.06,10.0,ENE,3.5,-,N/A,,Clear,60,2013-04-16 00:53:00
9:53 PM,69.1,63.0,81,30.09,10.0,Calm,Calm,-,N/A,,Clear,0,2013-04-16 01:53:00
10:53 PM,68.0,63.0,84,30.12,10.0,East,5.8,-,N/A,,Clear,80,2013-04-16 02:53:00
11:53 PM,66.9,63.0,87,30.14,10.0,East,4.6,-,N/A,,Clear,100,2013-04-16 03:53:00